Location: Silent Lake
(44.9206°N, 78.0708°W)
Time: 10:19:12
(UTC-04:00)

Cosmos 2219 Rocket - Pass Details

Date: 19 April 2018
Orbit: 826 x 848 km, 71.0° (Epoch: 19 September)

Event Time Altitude Azimuth Distance (km) Brightness Sun altitude
Rises 20:33:45 0° 179° (S) 3,392 5.1 -6.0°
Reaches altitude 10° 20:36:22 10° 170° (S) 2,459 4.3 -6.4°
Maximum altitude 20:41:28 36° 106° (ESE) 1,304 2.7 -7.2°
Drops below altitude 10° 20:46:34 10° 41° (NE) 2,462 4.5 -8.1°
Sets 20:49:11 0° 33° (NNE) 3,398 5.3 -8.5°
